﻿測定場所 (Monitoring sites),日付 (Measurement date),時間 (Measurement time),線量率 最大値 (max) μGy/h,線量率 最小値 (min) μGy/h,線量率 平均値 (average) μGy/h,
新宿 (Shinjuku),2011-08-14,23:00～23:59,0.0599,0.0541,0.0570,
新宿 (Shinjuku),2011-08-14,22:00～22:59,0.0590,0.0548,0.0569,
新宿 (Shinjuku),2011-08-14,21:00～21:59,0.0589,0.0546,0.0567,
新宿 (Shinjuku),2011-08-14,20:00～20:59,0.0593,0.0542,0.0567,
新宿 (Shinjuku),2011-08-14,19:00～19:59,0.0592,0.0538,0.0564,
新宿 (Shinjuku),2011-08-14,18:00～18:59,0.0589,0.0546,0.0565,
新宿 (Shinjuku),2011-08-14,17:00～17:59,0.0592,0.0535,0.0564,
新宿 (Shinjuku),2011-08-14,16:00～16:59,0.0599,0.0545,0.0569,
新宿 (Shinjuku),2011-08-14,15:00～15:59,0.0593,0.0549,0.0570,
新宿 (Shinjuku),2011-08-14,14:00～14:59,0.0596,0.0551,0.0572,
新宿 (Shinjuku),2011-08-14,13:00～13:59,0.0598,0.0547,0.0577,
新宿 (Shinjuku),2011-08-14,12:00～12:59,0.0601,0.0553,0.0577,
新宿 (Shinjuku),2011-08-14,11:00～11:59,0.0606,0.0547,0.0574,
新宿 (Shinjuku),2011-08-14,10:00～10:59,0.0607,0.0555,0.0580,
新宿 (Shinjuku),2011-08-14,09:00～09:59,0.0610,0.0551,0.0582,
新宿 (Shinjuku),2011-08-14,08:00～08:59,0.0617,0.0547,0.0582,
新宿 (Shinjuku),2011-08-14,07:00～07:59,0.0603,0.0549,0.0577,
新宿 (Shinjuku),2011-08-14,06:00～06:59,0.0593,0.0551,0.0573,
新宿 (Shinjuku),2011-08-14,05:00～05:59,0.0602,0.0533,0.0571,
新宿 (Shinjuku),2011-08-14,04:00～04:59,0.0595,0.0540,0.0572,
新宿 (Shinjuku),2011-08-14,03:00～03:59,0.0603,0.0546,0.0571,
新宿 (Shinjuku),2011-08-14,02:00～02:59,0.0590,0.0539,0.0568,
新宿 (Shinjuku),2011-08-14,01:00～01:59,0.0589,0.0546,0.0569,
新宿 (Shinjuku),2011-08-14,00:00～00:59,0.0609,0.0549,0.0573,
新宿 (Shinjuku),2011-08-13,23:00～23:59,0.0585,0.0544,0.0568,
新宿 (Shinjuku),2011-08-13,22:00～22:59,0.0595,0.0548,0.0569,
新宿 (Shinjuku),2011-08-13,21:00～21:59,0.0600,0.0545,0.0567,
新宿 (Shinjuku),2011-08-13,20:00～20:59,0.0592,0.0540,0.0566,
新宿 (Shinjuku),2011-08-13,19:00～19:59,0.0599,0.0544,0.0570,
新宿 (Shinjuku),2011-08-13,18:00～18:59,0.0596,0.0546,0.0567,
新宿 (Shinjuku),2011-08-13,17:00～17:59,0.0587,0.0548,0.0567,
新宿 (Shinjuku),2011-08-13,16:00～16:59,0.0603,0.0535,0.0569,
新宿 (Shinjuku),2011-08-13,15:00～15:59,0.0604,0.0540,0.0571,
新宿 (Shinjuku),2011-08-13,14:00～14:59,0.0593,0.0547,0.0571,
新宿 (Shinjuku),2011-08-13,13:00～13:59,0.0616,0.0548,0.0575,
新宿 (Shinjuku),2011-08-13,12:00～12:59,0.0592,0.0537,0.0569,
新宿 (Shinjuku),2011-08-13,11:00～11:59,0.0595,0.0549,0.0576,
新宿 (Shinjuku),2011-08-13,10:00～10:59,0.0605,0.0557,0.0579,
新宿 (Shinjuku),2011-08-13,09:00～09:59,0.0605,0.0558,0.0580,
新宿 (Shinjuku),2011-08-13,08:00～08:59,0.0602,0.0551,0.0578,
新宿 (Shinjuku),2011-08-13,07:00～07:59,0.0614,0.0553,0.0576,
新宿 (Shinjuku),2011-08-13,06:00～06:59,0.0598,0.0547,0.0572,
新宿 (Shinjuku),2011-08-13,05:00～05:59,0.0604,0.0537,0.0570,
新宿 (Shinjuku),2011-08-13,04:00～04:59,0.0596,0.0537,0.0573,
新宿 (Shinjuku),2011-08-13,03:00～03:59,0.0593,0.0537,0.0571,
新宿 (Shinjuku),2011-08-13,02:00～02:59,0.0598,0.0536,0.0572,
新宿 (Shinjuku),2011-08-13,01:00～01:59,0.0609,0.0550,0.0575,
新宿 (Shinjuku),2011-08-13,00:00～00:59,0.0600,0.0547,0.0571,
新宿 (Shinjuku),2011-08-12,23:00～23:59,0.0599,0.0542,0.0570,
新宿 (Shinjuku),2011-08-12,22:00～22:59,0.0596,0.0545,0.0572,
新宿 (Shinjuku),2011-08-12,21:00～21:59,0.0598,0.0544,0.0575,
新宿 (Shinjuku),2011-08-12,20:00～20:59,0.0596,0.0552,0.0569,
新宿 (Shinjuku),2011-08-12,19:00～19:59,0.0607,0.0551,0.0575,
新宿 (Shinjuku),2011-08-12,18:00～18:59,0.0593,0.0545,0.0573,
新宿 (Shinjuku),2011-08-12,17:00～17:59,0.0603,0.0539,0.0570,
新宿 (Shinjuku),2011-08-12,16:00～16:59,0.0600,0.0552,0.0575,
新宿 (Shinjuku),2011-08-12,15:00～15:59,0.0605,0.0551,0.0575,
新宿 (Shinjuku),2011-08-12,14:00～14:59,0.0601,0.0548,0.0579,
新宿 (Shinjuku),2011-08-12,13:00～13:59,0.0611,0.0551,0.0578,
新宿 (Shinjuku),2011-08-12,12:00～12:59,0.0610,0.0555,0.0581,
新宿 (Shinjuku),2011-08-12,11:00～11:59,0.0602,0.0551,0.0577,
新宿 (Shinjuku),2011-08-12,10:00～10:59,0.0611,0.0558,0.0585,
新宿 (Shinjuku),2011-08-12,09:00～09:59,0.0608,0.0549,0.0581,
新宿 (Shinjuku),2011-08-12,08:00～08:59,0.0612,0.0558,0.0582,
新宿 (Shinjuku),2011-08-12,07:00～07:59,0.0606,0.0556,0.0577,
新宿 (Shinjuku),2011-08-12,06:00～06:59,0.0610,0.0543,0.0579,
新宿 (Shinjuku),2011-08-12,05:00～05:59,0.0594,0.0544,0.0573,
新宿 (Shinjuku),2011-08-12,04:00～04:59,0.0597,0.0544,0.0571,
新宿 (Shinjuku),2011-08-12,03:00～03:59,0.0596,0.0537,0.0567,
新宿 (Shinjuku),2011-08-12,02:00～02:59,0.0597,0.0551,0.0572,
新宿 (Shinjuku),2011-08-12,01:00～01:59,0.0593,0.0538,0.0571,
新宿 (Shinjuku),2011-08-12,00:00～00:59,0.0592,0.0548,0.0573,
新宿 (Shinjuku),2011-08-11,23:00～23:59,0.0594,0.0548,0.0570,
新宿 (Shinjuku),2011-08-11,22:00～22:59,0.0593,0.0540,0.0566,
新宿 (Shinjuku),2011-08-11,21:00～21:59,0.0593,0.0541,0.0566,
新宿 (Shinjuku),2011-08-11,20:00～20:59,0.0591,0.0555,0.0572,
新宿 (Shinjuku),2011-08-11,19:00～19:59,0.0596,0.0546,0.0573,
新宿 (Shinjuku),2011-08-11,18:00～18:59,0.0600,0.0549,0.0573,
新宿 (Shinjuku),2011-08-11,17:00～17:59,0.0617,0.0554,0.0581,
新宿 (Shinjuku),2011-08-11,16:00～16:59,0.0605,0.0552,0.0582,
新宿 (Shinjuku),2011-08-11,15:00～15:59,0.0600,0.0547,0.0576,
新宿 (Shinjuku),2011-08-11,14:00～14:59,0.0593,0.0547,0.0570,
新宿 (Shinjuku),2011-08-11,13:00～13:59,0.0598,0.0548,0.0574,
新宿 (Shinjuku),2011-08-11,12:00～12:59,0.0602,0.0549,0.0573,
新宿 (Shinjuku),2011-08-11,11:00～11:59,0.0602,0.0552,0.0576,
新宿 (Shinjuku),2011-08-11,10:00～10:59,0.0614,0.0545,0.0576,
新宿 (Shinjuku),2011-08-11,09:00～09:59,0.0609,0.0548,0.0573,
新宿 (Shinjuku),2011-08-11,08:00～08:59,0.0600,0.0549,0.0576,
新宿 (Shinjuku),2011-08-11,07:00～07:59,0.0600,0.0555,0.0579,
新宿 (Shinjuku),2011-08-11,06:00～06:59,0.0604,0.0558,0.0580,
新宿 (Shinjuku),2011-08-11,05:00～05:59,0.0599,0.0547,0.0575,
新宿 (Shinjuku),2011-08-11,04:00～04:59,0.0599,0.0544,0.0573,
新宿 (Shinjuku),2011-08-11,03:00～03:59,0.0600,0.0545,0.0573,
新宿 (Shinjuku),2011-08-11,02:00～02:59,0.0602,0.0546,0.0570,
新宿 (Shinjuku),2011-08-11,01:00～01:59,0.0597,0.0540,0.0570,
新宿 (Shinjuku),2011-08-11,00:00～00:59,0.0590,0.0537,0.0569,
新宿 (Shinjuku),2011-08-10,23:00～23:59,0.0600,0.0541,0.0568,
新宿 (Shinjuku),2011-08-10,22:00～22:59,0.0596,0.0548,0.0571,
新宿 (Shinjuku),2011-08-10,21:00～21:59,0.0601,0.0546,0.0570,
新宿 (Shinjuku),2011-08-10,20:00～20:59,0.0596,0.0551,0.0571,
新宿 (Shinjuku),2011-08-10,19:00～19:59,0.0591,0.0540,0.0569,
新宿 (Shinjuku),2011-08-10,18:00～18:59,0.0597,0.0534,0.0571,
新宿 (Shinjuku),2011-08-10,17:00～17:59,0.0589,0.0544,0.0569,
新宿 (Shinjuku),2011-08-10,16:00～16:59,0.0588,0.0538,0.0567,
新宿 (Shinjuku),2011-08-10,15:00～15:59,0.0585,0.0539,0.0568,
新宿 (Shinjuku),2011-08-10,14:00～14:59,0.0589,0.0535,0.0565,
新宿 (Shinjuku),2011-08-10,13:00～13:59,0.0601,0.0541,0.0567,
新宿 (Shinjuku),2011-08-10,12:00～12:59,0.0612,0.0544,0.0574,
新宿 (Shinjuku),2011-08-10,11:00～11:59,0.0613,0.0553,0.0578,
新宿 (Shinjuku),2011-08-10,10:00～10:59,0.0603,0.0539,0.0576,
新宿 (Shinjuku),2011-08-10,09:00～09:59,0.0614,0.0554,0.0580,
新宿 (Shinjuku),2011-08-10,08:00～08:59,0.0607,0.0552,0.0580,
新宿 (Shinjuku),2011-08-10,07:00～07:59,0.0606,0.0547,0.0578,
新宿 (Shinjuku),2011-08-10,06:00～06:59,0.0602,0.0549,0.0575,
新宿 (Shinjuku),2011-08-10,05:00～05:59,0.0601,0.0541,0.0571,
新宿 (Shinjuku),2011-08-10,04:00～04:59,0.0591,0.0538,0.0567,
新宿 (Shinjuku),2011-08-10,03:00～03:59,0.0593,0.0527,0.0566,
新宿 (Shinjuku),2011-08-10,02:00～02:59,0.0593,0.0538,0.0566,
新宿 (Shinjuku),2011-08-10,01:00～01:59,0.0586,0.0535,0.0564,
新宿 (Shinjuku),2011-08-10,00:00～00:59,0.0598,0.0543,0.0567,
新宿 (Shinjuku),2011-08-09,23:00～23:59,0.0591,0.0538,0.0564,
新宿 (Shinjuku),2011-08-09,22:00～22:59,0.0600,0.0544,0.0569,
新宿 (Shinjuku),2011-08-09,21:00～21:59,0.0589,0.0541,0.0565,
新宿 (Shinjuku),2011-08-09,20:00～20:59,0.0590,0.0527,0.0564,
新宿 (Shinjuku),2011-08-09,19:00～19:59,0.0597,0.0538,0.0563,
新宿 (Shinjuku),2011-08-09,18:00～18:59,0.0592,0.0541,0.0565,
新宿 (Shinjuku),2011-08-09,17:00～17:59,0.0587,0.0535,0.0563,
新宿 (Shinjuku),2011-08-09,16:00～16:59,0.0597,0.0540,0.0568,
新宿 (Shinjuku),2011-08-09,15:00～15:59,0.0596,0.0550,0.0569,
新宿 (Shinjuku),2011-08-09,14:00～14:59,0.0601,0.0551,0.0572,
新宿 (Shinjuku),2011-08-09,13:00～13:59,0.0607,0.0544,0.0576,
新宿 (Shinjuku),2011-08-09,12:00～12:59,0.0607,0.0548,0.0574,
新宿 (Shinjuku),2011-08-09,11:00～11:59,0.0597,0.0547,0.0574,
新宿 (Shinjuku),2011-08-09,10:00～10:59,0.0598,0.0559,0.0577,
新宿 (Shinjuku),2011-08-09,09:00～09:59,0.0600,0.0554,0.0576,
新宿 (Shinjuku),2011-08-09,08:00～08:59,0.0606,0.0555,0.0578,
新宿 (Shinjuku),2011-08-09,07:00～07:59,0.0606,0.0547,0.0577,
新宿 (Shinjuku),2011-08-09,06:00～06:59,0.0599,0.0541,0.0572,
新宿 (Shinjuku),2011-08-09,05:00～05:59,0.0608,0.0550,0.0573,
新宿 (Shinjuku),2011-08-09,04:00～04:59,0.0598,0.0549,0.0572,
新宿 (Shinjuku),2011-08-09,03:00～03:59,0.0599,0.0551,0.0571,
新宿 (Shinjuku),2011-08-09,02:00～02:59,0.0593,0.0548,0.0569,
新宿 (Shinjuku),2011-08-09,01:00～01:59,0.0593,0.0533,0.0565,
新宿 (Shinjuku),2011-08-09,00:00～00:59,0.0588,0.0541,0.0563,
新宿 (Shinjuku),2011-08-08,23:00～23:59,0.0587,0.0532,0.0563,
新宿 (Shinjuku),2011-08-08,22:00～22:59,0.0590,0.0544,0.0563,
新宿 (Shinjuku),2011-08-08,21:00～21:59,0.0596,0.0523,0.0561,
新宿 (Shinjuku),2011-08-08,20:00～20:59,0.0586,0.0539,0.0561,
新宿 (Shinjuku),2011-08-08,19:00～19:59,0.0600,0.0532,0.0563,
新宿 (Shinjuku),2011-08-08,18:00～18:59,0.0586,0.0535,0.0562,
新宿 (Shinjuku),2011-08-08,17:00～17:59,0.0593,0.0532,0.0565,
新宿 (Shinjuku),2011-08-08,16:00～16:59,0.0589,0.0539,0.0564,
新宿 (Shinjuku),2011-08-08,15:00～15:59,0.0596,0.0534,0.0563,
新宿 (Shinjuku),2011-08-08,14:00～14:59,0.0598,0.0536,0.0569,
新宿 (Shinjuku),2011-08-08,13:00～13:59,0.0607,0.0536,0.0572,
新宿 (Shinjuku),2011-08-08,12:00～12:59,0.0606,0.0538,0.0571,
新宿 (Shinjuku),2011-08-08,11:00～11:59,0.0602,0.0541,0.0573,
新宿 (Shinjuku),2011-08-08,10:00～10:59,0.0596,0.0552,0.0576,
新宿 (Shinjuku),2011-08-08,09:00～09:59,0.0593,0.0548,0.0576,
新宿 (Shinjuku),2011-08-08,08:00～08:59,0.0603,0.0541,0.0578,
新宿 (Shinjuku),2011-08-08,07:00～07:59,0.0605,0.0543,0.0578,
新宿 (Shinjuku),2011-08-08,06:00～06:59,0.0600,0.0550,0.0577,
新宿 (Shinjuku),2011-08-08,05:00～05:59,0.0616,0.0543,0.0574,
新宿 (Shinjuku),2011-08-08,04:00～04:59,0.0616,0.0546,0.0572,
新宿 (Shinjuku),2011-08-08,03:00～03:59,0.0591,0.0547,0.0567,
新宿 (Shinjuku),2011-08-08,02:00～02:59,0.0600,0.0544,0.0565,
新宿 (Shinjuku),2011-08-08,01:00～01:59,0.0586,0.0532,0.0565,
新宿 (Shinjuku),2011-08-08,00:00～00:59,0.0597,0.0530,0.0565,
